Domov               UVHVVR             MKGP            O straneh              
ZDRAVSTVENO VARSTVO RASTLIN
  MREŽA AGROMET. POSTAJ
 ► PROGNOSTIČNA OBVESTILA
AGROMETEOROLOŠKI PODATKI -
ARSO
OBVLADOVANJE TVEGANJ ZARADI
NEUGODNIH VREMENSKIH RAZMER
  ► NARAVNE NESREČE
  ► SUŠA/MOČA
  ► NAMAKANJE
  ► ŽLED (gozdarstvo)
KARTOGRAFSKI PRIKAZI
SPLETNE POVEZAVE
PROJEKTI IN PUBLIKACIJE

AGROMETEOROLOŠKA MREŽA: VREMENSKE POSTAJE IN FENOLOŠKA OPAZOVANJA

Pregled podatkov za lokacijo Sremič, meteorološka postaja 49592

Pregled senzorjev na lokaciji

ID Ime Zadnja
vrednost
Datum
zadnje
spremembe
Tip
senzorja
3947 Omočenost lista (U) 0 U 19.9.2018 05:00 A730WET
3948 Padavine (mm) 0 mm 19.9.2018 05:00 Generic 0.2 mm
3945 Relativna vlaga 2 m (% RH) 69,4 % RH 19.9.2018 05:00 Generic 0 - 100 %
3946 Temperatura 2 m (°C) 15,89 °C 19.9.2018 05:00 Generic -40 - +60 °C

Pregled podatkov zadnjih 24 ur

Zap.
št.
Datum in čas Sremič
Omočenost
lista
Padavine Relativna
vlaga
2
m
Temperatura
2
m
1 19.9.2018 05:30
2 19.9.2018 05:00
3 19.9.2018 04:30
4 19.9.2018 04:00 0 0 69,4 15,9
5 19.9.2018 03:30 0 0 61,5 17,1
6 19.9.2018 03:00 0 0 60,2 17,3
7 19.9.2018 02:30 0 0 57,9 17,9
8 19.9.2018 02:00 0 0 55,8 18,2
9 19.9.2018 01:30 0 0 56,2 18,2
10 19.9.2018 01:00 0 0 55,5 18,3
11 19.9.2018 00:30 0 0 55 18,5
12 19.9.2018 00:00 0 0 55,7 18,5
13 18.9.2018 23:30 0 0 58,3 18,3
14 18.9.2018 23:00 0 0 56,8 18,6
15 18.9.2018 22:30 0 0 54,7 19
16 18.9.2018 22:00 0 0 51,5 19,6
17 18.9.2018 21:30 0 0 53,2 19,3
18 18.9.2018 21:00 0 0 52,7 19,7
19 18.9.2018 20:30 0 0 50,5 20
20 18.9.2018 20:00 0 0 49,8 20,1
21 18.9.2018 19:30 0 0 49,7 20,3
22 18.9.2018 19:00 0 0 48,3 20,7
23 18.9.2018 18:30 0 0 48,4 20,9
24 18.9.2018 18:00 0 0 47,7 21,3
25 18.9.2018 17:30 0 0 46,1 22,3
26 18.9.2018 17:00 0 0 45,9 23
27 18.9.2018 16:30 0 0 44,3 23,6
28 18.9.2018 16:00 0 0 43 24,3
29 18.9.2018 15:30 0 0 40,9 24,7
30 18.9.2018 15:00 0 0 41,1 24,9
31 18.9.2018 14:30 0 0 39,8 25
32 18.9.2018 14:00 0 0 39,6 25,1
33 18.9.2018 13:30 0 0 38,1 24,9
34 18.9.2018 13:00 0 0 42,7 25,3
35 18.9.2018 12:30 0 0 45,4 25,2
36 18.9.2018 12:00 0 0 49,4 24,6
37 18.9.2018 11:30 0 0 49,3 24,4
38 18.9.2018 11:00 0 0 51,4 23,5
39 18.9.2018 10:30 0 0 53 22,3
40 18.9.2018 10:00 0 0 56,5 22,5
41 18.9.2018 09:30 0 0 61,3 21,9
42 18.9.2018 09:00 0 0 56 21,6
43 18.9.2018 08:30 0 0 57,6 20,6
44 18.9.2018 08:00 0 0 59,6 19,4
45 18.9.2018 07:30 0 0 62,8 18,5
46 18.9.2018 07:00 0 0 65,8 17,5
47 18.9.2018 06:30 0 0 68,9 16,3
48 18.9.2018 06:00 0 0 69,2 16,1
© 2011 Ministrstvo za kmetijstvo, gozdarstvo in prehrano. Vse pravice pridržane.